FW1589 Weather Reports


Display with metric or nautical units.
time (UTC)temp
F
wind
direction
speed
MPH
gust
MPH
rain 1hr
in
rain 24hr
in
rain mn
in
humidity
%
barometer
mb
20260506062129 55 241 1.0 3.0 0.00 0.16 0.15 84 1000.9
20260506061628 55 242 1.0 3.0 0.00 0.17 0.15 84 1000.9
20260506060623 55 207 1.0 3.0 0.00 0.17 0.15 85 1000.8
20260506060124 55 225 0.0 2.0 0.00 0.18 0.15 85 1000.9
20260506051119 54 227 1.0 6.0 0.00 0.25 0.15 86 1000.5
20260506050620 55 205 1.0 6.0 0.00 0.25 0.15 86 1000.6
20260506050119 55 248 1.0 5.0 0.00 0.25 0.15 87 1000.5
20260506045115 55 203 1.0 2.0 0.00 0.26 0.15 87 1000.4
20260506044615 55 203 0.0 2.0 0.00 0.27 0.15 87 1000.4
20260506043115 55 203 0.0 1.0 0.00 0.29 0.15 87 1000.1
20260506042614 55 203 0.0 2.0 0.00 0.29 0.15 87 1000.1
20260506042114 55 203 0.0 2.0 0.00 0.29 0.15 86 1000.1
20260506041607 55 241 0.0 0.0 0.00 0.30 0.15 86 1000.0
20260506041102 55 241 0.0 0.0 0.00 0.30 0.15 86 1000.0
20260506040053 55 242 0.0 1.0 0.00 0.31 0.15 86 999.9
20260506035553 55 242 0.0 1.0 0.00 0.31 0.15 86 999.9
20260506035053 55 248 0.0 2.0 0.00 0.31 0.15 86 999.7
20260506034549 55 248 1.0 3.0 0.00 0.31 0.15 86 999.6
20260506033549 55 228 1.0 3.0 0.00 0.31 0.15 85 999.5
20260506033049 56 221 1.0 5.0 0.00 0.31 0.15 85 999.3
20260506032052 56 238 0.0 3.0 0.00 0.31 0.15 85 999.2
20260506031045 56 246 1.0 7.0 0.00 0.31 0.15 85 999.1
20260506030545 56 242 2.0 7.0 0.00 0.31 0.15 85 998.9
20260506025045 56 220 1.0 4.0 0.00 0.31 0.15 85 998.8
20260506024545 56 255 2.0 8.0 0.00 0.31 0.15 85 998.7
20260506024044 56 208 2.0 8.0 0.00 0.31 0.15 85 998.8
20260506023030 57 215 2.0 6.0 0.00 0.31 0.15 85 998.8
20260506022018 57 241 1.0 5.0 0.00 0.31 0.15 85 998.7
20260506021512 57 277 2.0 8.0 0.00 0.31 0.15 85 998.6
20260506021005 57 228 3.0 8.0 0.00 0.31 0.15 85 998.6
20260506020459 57 208 3.0 8.0 0.00 0.31 0.15 84 998.5
20260506015954 57 243 3.0 7.0 0.00 0.31 0.15 84 998.4
20260506015448 57 233 3.0 7.0 0.00 0.31 0.15 84 998.4
20260506014944 57 231 3.0 8.0 0.00 0.31 0.15 84 998.4
20260506014435 57 222 3.0 8.0 0.00 0.31 0.15 83 998.3
20260506013930 58 238 3.0 8.0 0.00 0.31 0.15 83 998.4
20260506013426 58 188 3.0 9.0 0.00 0.31 0.15 83 998.4
20260506012918 58 196 3.0 9.0 0.00 0.31 0.15 82 998.3
20260506012412 58 266 3.0 9.0 0.00 0.31 0.15 82 998.5
20260506011905 58 190 3.0 9.0 0.00 0.31 0.15 82 998.4
20260506011400 58 209 3.0 6.0 0.00 0.31 0.15 82 998.5
20260506010854 58 185 3.0 8.0 0.00 0.31 0.15 82 998.5
20260506010348 58 238 3.0 8.0 0.00 0.31 0.15 82 998.4
20260506005336 59 269 3.0 8.0 0.00 0.31 0.15 82 998.4
20260506004830 59 193 3.0 8.0 0.00 0.31 0.15 82 998.3
20260506004324 59 197 4.0 8.0 0.00 0.31 0.15 82 998.3
20260506003817 59 208 4.0 8.0 0.00 0.31 0.15 81 998.3
20260506003312 59 221 3.0 9.0 0.00 0.31 0.15 81 998.3
20260506002259 60 244 2.0 7.0 0.00 0.31 0.15 81 998.3
20260506001754 60 256 3.0 6.0 0.00 0.31 0.15 82 998.1
20260506001248 59 202 3.0 9.0 0.00 0.31 0.15 82 998.1
20260506000742 59 224 4.0 9.0 0.00 0.31 0.15 82 998.1
20260506000236 58 212 4.0 9.0 0.00 0.31 0.15 82 998.1
20260505235730 59 211 3.0 9.0 0.00 0.31 0.15 83 998.1
20260505235224 58 205 3.0 9.0 0.00 0.31 0.15 83 998.1
20260505234718 58 248 3.0 7.0 0.00 0.31 0.15 84 998.2
20260505234212 58 239 3.0 7.0 0.00 0.31 0.15 84 998.2
20260505233705 58 202 4.0 10.0 0.00 0.31 0.15 83 998.1
20260505232655 58 218 3.0 8.0 0.00 0.31 0.15 83 998.2
20260505231641 58 239 3.0 7.0 0.00 0.31 0.15 83 998.2
20260505231135 58 208 3.0 7.0 0.00 0.31 0.15 83 998.3
20260505230630 59 229 3.0 7.0 0.00 0.31 0.15 83 998.2
20260505230124 59 200 3.0 8.0 0.00 0.31 0.15 83 998.2
20260505225112 59 233 3.0 9.0 0.00 0.31 0.15 83 998.2
20260505224606 59 247 4.0 9.0 0.00 0.31 0.15 82 998.1
20260505224100 60 250 4.0 10.0 0.00 0.31 0.15 81 998.2
20260505223554 60 249 4.0 10.0 0.00 0.31 0.15 81 998.2
20260505223048 60 255 4.0 9.0 0.00 0.31 0.15 80 998.2
20260505222541 60 257 4.0 9.0 0.00 0.31 0.15 79 998.2
20260505222035 61 219 4.0 12.0 0.00 0.31 0.15 79 998.1
20260505221530 61 247 3.0 12.0 0.00 0.31 0.15 79 998.1
20260505220518 61 249 4.0 11.0 0.00 0.31 0.15 79 998.1
20260505220012 61 300 4.0 11.0 0.00 0.31 0.15 79 998.1
20260505215506 61 242 4.0 7.0 0.00 0.31 0.15 79 998.2
20260505215000 61 245 4.0 7.0 0.00 0.31 0.15 79 998.2
20260505213948 61 198 3.0 9.0 0.00 0.31 0.15 79 998.3
20260505213442 61 250 3.0 7.0 0.00 0.31 0.15 79 998.3
20260505212935 61 249 4.0 8.0 0.00 0.31 0.15 78 998.4
20260505212430 61 225 3.0 8.0 0.00 0.31 0.15 80 998.4
20260505211924 61 244 3.0 8.0 0.00 0.31 0.15 80 998.4
20260505211418 60 187 3.0 8.0 0.00 0.31 0.15 80 998.4
20260505210911 60 282 3.0 7.0 0.00 0.31 0.15 79 998.3
20260505205900 60 231 2.0 7.0 0.00 0.31 0.15 81 998.4
20260505204849 59 271 2.0 6.0 0.00 0.31 0.15 81 998.5
20260505204349 59 216 2.0 9.0 0.00 0.31 0.15 81 998.4
20260505203848 59 248 2.0 9.0 0.00 0.31 0.15 81 998.4
20260505203350 59 257 2.0 4.0 0.00 0.31 0.15 81 998.4
20260505202848 59 205 1.0 4.0 0.00 0.31 0.15 81 998.4
20260505202346 59 213 1.0 6.0 0.00 0.31 0.15 81 998.5
20260505201846 59 218 1.0 7.0 0.00 0.31 0.15 81 998.5
20260505201347 60 236 2.0 7.0 0.00 0.31 0.15 81 998.5
20260505200847 60 271 3.0 6.0 0.00 0.31 0.15 80 998.5
20260505200348 60 209 2.0 5.0 0.00 0.31 0.15 80 998.5
20260505195848 60 223 2.0 5.0 0.00 0.31 0.15 80 998.4
20260505195348 60 207 2.0 5.0 0.00 0.31 0.15 79 998.5
20260505194842 59 256 3.0 7.0 0.00 0.31 0.15 79 998.5
20260505193842 59 163 2.0 6.0 0.00 0.31 0.15 81 998.5
20260505192843 58 168 2.0 5.0 0.00 0.31 0.15 83 998.6
20260505192343 58 244 1.0 3.0 0.00 0.31 0.15 85 998.7
20260505191842 58 210 1.0 6.0 0.00 0.31 0.15 85 998.5
20260505191343 58 206 1.0 6.0 0.00 0.31 0.15 85 998.5
20260505190844 57 218 2.0 5.0 0.00 0.31 0.15 85 998.5
20260505190339 57 232 2.0 5.0 0.00 0.31 0.15 85 998.5
20260505185840 57 196 2.0 5.0 0.00 0.31 0.15 85 998.5
20260505185340 57 204 1.0 4.0 0.00 0.31 0.15 86 998.4
20260505184838 57 240 1.0 4.0 0.00 0.31 0.15 86 998.3
20260505184339 57 279 1.0 3.0 0.00 0.31 0.15 86 998.3
20260505183838 57 30 1.0 3.0 0.00 0.31 0.15 87 998.3
20260505183340 56 355 1.0 3.0 0.00 0.31 0.15 88 998.3
20260505182838 56 279 1.0 6.0 0.00 0.31 0.15 88 998.4
20260505182339 56 273 1.0 6.0 0.00 0.31 0.15 89 998.4
20260505181840 56 273 1.0 4.0 0.00 0.31 0.15 90 998.4
20260505181340 56 188 1.0 4.0 0.00 0.31 0.15 90 998.4
20260505180338 55 309 0.0 3.0 0.00 0.31 0.15 91 998.3
20260505175836 55 309 0.0 3.0 0.00 0.31 0.15 91 998.4
20260505175335 55 294 1.0 3.0 0.00 0.31 0.15 91 998.3
20260505174835 55 293 1.0 3.0 0.00 0.31 0.15 91 998.1
20260505174333 55 275 1.0 4.0 0.00 0.31 0.15 91 998.1
20260505173832 55 268 1.0 5.0 0.00 0.31 0.15 91 998.0
20260505173332 55 281 1.0 5.0 0.00 0.31 0.15 91 998.1
20260505172832 55 268 1.0 5.0 0.00 0.31 0.15 92 998.1
20260505172333 55 283 1.0 3.0 0.00 0.31 0.15 92 998.0
20260505171319 55 277 0.0 1.0 0.00 0.31 0.15 92 998.0
20260505170813 55 277 1.0 3.0 0.00 0.31 0.15 92 998.1
20260505165801 55 278 1.0 4.0 0.01 0.31 0.15 92 998.0
20260505165255 55 267 1.0 3.0 0.01 0.31 0.15 92 998.0
20260505164750 55 271 0.0 3.0 0.01 0.31 0.15 92 998.0
20260505163737 55 271 0.0 4.0 0.01 0.31 0.15 92 998.0
20260505163231 54 271 0.0 4.0 0.01 0.31 0.15 92 998.0
20260505162219 54 234 0.0 1.0 0.01 0.31 0.15 92 998.0
20260505161713 54 269 1.0 2.0 0.01 0.31 0.15 92 998.0
20260505160701 54 270 1.0 3.0 0.01 0.31 0.15 92 997.8
20260505160200 54 233 0.0 2.0 0.01 0.31 0.15 92 997.9
20260505151600 53 276 0.0 3.0 0.00 0.30 0.14 92 997.6
20260505150549 53 275 1.0 6.0 0.00 0.30 0.14 92 997.6
20260505140437 52 205 0.0 1.0 0.00 0.30 0.14 92 997.2
20260505124307 52 201 1.0 4.0 0.00 0.30 0.14 91 996.9
20260505123803 52 201 0.0 4.0 0.00 0.30 0.14 91 996.9
20260505123303 52 203 0.0 2.0 0.00 0.30 0.14 91 996.9
20260505122800 52 203 1.0 2.0 0.00 0.30 0.14 91 997.0
20260505122302 52 185 0.0 3.0 0.00 0.30 0.14 91 996.9
20260505121800 52 185 0.0 3.0 0.00 0.30 0.14 91 997.0
20260505121258 52 184 0.0 2.0 0.00 0.30 0.14 91 997.0
20260505120757 52 184 0.0 3.0 0.00 0.30 0.14 91 997.0
20260505115753 52 186 0.0 2.0 0.00 0.30 0.14 91 996.9
20260505115253 52 186 0.0 4.0 0.00 0.30 0.14 91 996.9
20260505114252 52 185 1.0 3.0 0.00 0.30 0.14 91 996.8
20260505113751 52 184 1.0 3.0 0.00 0.30 0.14 91 996.9
20260505113253 52 185 1.0 4.0 0.00 0.30 0.14 91 996.8
20260505112752 52 173 1.0 5.0 0.00 0.30 0.14 91 996.8
20260505112251 52 163 2.0 7.0 0.00 0.30 0.14 91 996.9
20260505111251 52 153 1.0 3.0 0.00 0.30 0.14 91 997.0
20260505110239 52 165 0.0 2.0 0.00 0.30 0.14 91 997.1
20260505102150 51 163 0.0 2.0 0.01 0.30 0.14 90 997.2
20260505101645 51 163 0.0 2.0 0.01 0.30 0.14 90 997.1
20260505100645 51 150 1.0 5.0 0.02 0.30 0.14 90 996.9
20260505100144 51 148 2.0 5.0 0.02 0.30 0.14 90 996.9
20260505095641 51 163 1.0 5.0 0.02 0.30 0.14 90 997.0
20260505095141 52 180 1.0 2.0 0.03 0.30 0.14 90 997.1
20260505094141 52 178 1.0 5.0 0.04 0.30 0.14 90 997.1
20260505093140 52 175 1.0 3.0 0.04 0.30 0.14 90 997.2
20260505092640 52 175 1.0 3.0 0.04 0.30 0.14 90 997.4
20260505091638 52 194 1.0 4.0 0.03 0.29 0.13 90 997.4
20260505091137 52 194 2.0 6.0 0.03 0.29 0.13 90 997.4
20260505090638 52 168 1.0 6.0 0.03 0.28 0.12 90 997.4
20260505090137 52 193 0.0 4.0 0.03 0.28 0.12 90 997.4
20260505085639 52 178 0.0 2.0 0.04 0.28 0.12 89 997.6
20260505084635 52 255 0.0 0.0 0.05 0.27 0.11 89 997.7
20260505084134 52 292 0.0 0.0 0.06 0.26 0.10 89 997.6
20260505083635 52 292 0.0 0.0 0.07 0.26 0.10 89 997.7
20260505083134 52 292 0.0 0.0 0.08 0.26 0.10 89 997.7
20260505082634 52 292 0.0 0.0 0.08 0.26 0.10 89 997.7
20260505082135 52 292 0.0 0.0 0.08 0.26 0.10 89 997.7
20260505081635 52 292 0.0 0.0 0.09 0.26 0.10 89 997.6
20260505081135 52 292 0.0 0.0 0.09 0.26 0.10 89 997.6
20260505080631 52 294 0.0 0.0 0.09 0.25 0.09 89 997.8
20260505080131 52 294 0.0 0.0 0.09 0.25 0.09 89 997.8
20260505075629 52 294 0.0 0.0 0.08 0.24 0.08 89 997.7
20260505075131 52 298 0.0 0.0 0.07 0.23 0.07 89 997.8
20260505074630 52 299 0.0 0.0 0.06 0.22 0.06 89 997.8
20260505074130 52 299 0.0 0.0 0.05 0.20 0.05 89 997.9
20260505073131 52 306 0.0 1.0 0.03 0.18 0.02 89 997.6
20260505072129 52 308 0.0 1.0 0.03 0.18 0.02 89 997.8
20260505071630 52 310 0.0 1.0 0.03 0.17 0.01 88 997.9
20260505070130 52 348 0.0 1.0 0.03 0.16 0.00 88 998.1
20260505065630 52 348 0.0 2.0 0.04 0.16 0.16 88 998.0
20260505065130 51 348 1.0 3.0 0.05 0.16 0.16 88 998.0
20260505064630 51 350 1.0 3.0 0.06 0.16 0.16 88 997.9
20260505063624 51 355 0.0 3.0 0.06 0.15 0.15 88 997.7